| time (UTC) | temp F | wind direction | speed knots | gust knots | rain 1hr in | rain 24hr in | rain mn in | humidity % | barometer mb |
| 20260906231500 | 100 | 128 | 0.9 | 5.2 | 0.00 | 0.00 | 0.00 | 35 | 1008.4 |
| 20260906230516 | 100 | 138 | 0.9 | 5.2 | 0.00 | 0.00 | 0.00 | 34 | 1008.4 |
| 20260906225441 | 100 | 174 | 0.9 | 7.0 | 0.00 | 0.00 | 0.00 | 37 | 1008.4 |
| 20260906224421 | 100 | 206 | 1.7 | 7.0 | 0.00 | 0.00 | 0.00 | 36 | 1008.4 |
| 20260906223440 | 100 | 110 | 1.7 | 7.0 | 0.00 | 0.00 | 0.00 | 34 | 1008.5 |
| 20260906222453 | 101 | 146 | 1.7 | 6.1 | 0.00 | 0.00 | 0.00 | 35 | 1008.5 |
| 20260906221428 | 100 | 211 | 1.7 | 8.7 | 0.00 | 0.00 | 0.00 | 35 | 1008.6 |
| 20260906220422 | 100 | 181 | 1.7 | 8.7 | 0.00 | 0.00 | 0.00 | 36 | 1008.5 |
| 20260906215358 | 100 | 130 | 1.7 | 6.1 | 0.00 | 0.00 | 0.00 | 37 | 1008.6 |
| 20260906214354 | 100 | 119 | 1.7 | 7.8 | 0.00 | 0.00 | 0.00 | 37 | 1008.8 |
| 20260906213411 | 100 | 186 | 1.7 | 7.8 | 0.00 | 0.00 | 0.00 | 37 | 1008.9 |
| 20260906212410 | 100 | 29 | 1.7 | 7.8 | 0.00 | 0.00 | 0.00 | 37 | 1009.0 |
| 20260906211411 | 100 | 113 | 1.7 | 7.8 | 0.00 | 0.00 | 0.00 | 37 | 1009.2 |
| 20260906210432 | 99 | 206 | 2.6 | 7.0 | 0.00 | 0.00 | 0.00 | 37 | 1009.4 |
| 20260906205434 | 100 | 180 | 1.7 | 7.0 | 0.00 | 0.00 | 0.00 | 36 | 1009.6 |
| 20260906204407 | 100 | 140 | 1.7 | 7.0 | 0.00 | 0.00 | 0.00 | 37 | 1009.7 |
| 20260906203423 | 100 | 39 | 1.7 | 8.7 | 0.00 | 0.00 | 0.00 | 35 | 1009.8 |
| 20260906202400 | 100 | 123 | 2.6 | 8.7 | 0.00 | 0.00 | 0.00 | 36 | 1009.9 |
| 20260906200155 | 100 | 213 | 2.6 | 7.0 | 0.00 | 0.00 | 0.00 | 38 | 1010.1 |
| 20260906192901 | 100 | 96 | 1.7 | 7.8 | 0.00 | 0.00 | 0.00 | 37 | 1010.4 |
| 20260906191906 | 99 | 146 | 2.6 | 7.8 | 0.00 | 0.00 | 0.00 | 37 | 1010.5 |
| 20260906190843 | 99 | 88 | 1.7 | 5.2 | 0.00 | 0.00 | 0.00 | 38 | 1010.6 |
| 20260906185852 | 99 | 76 | 1.7 | 8.7 | 0.00 | 0.00 | 0.00 | 39 | 1010.6 |
| 20260906184824 | 98 | 172 | 2.6 | 8.7 | 0.00 | 0.00 | 0.00 | 41 | 1010.7 |
| 20260906183750 | 98 | 119 | 1.7 | 7.0 | 0.00 | 0.00 | 0.00 | 41 | 1010.9 |
| 20260906182801 | 98 | 130 | 1.7 | 6.1 | 0.00 | 0.00 | 0.00 | 41 | 1011.1 |
| 20260906181805 | 97 | 130 | 1.7 | 7.8 | 0.00 | 0.00 | 0.00 | 43 | 1011.2 |
| 20260906180805 | 98 | 128 | 1.7 | 7.8 | 0.00 | 0.00 | 0.00 | 42 | 1011.2 |
| 20260906175820 | 97 | 180 | 2.6 | 6.1 | 0.00 | 0.00 | 0.00 | 44 | 1011.4 |
| 20260906174825 | 97 | 117 | 0.9 | 5.2 | 0.00 | 0.00 | 0.00 | 44 | 1011.6 |
| 20260906173843 | 96 | 136 | 0.9 | 7.0 | 0.00 | 0.00 | 0.00 | 47 | 1011.7 |
| 20260906172828 | 96 | 130 | 2.6 | 7.0 | 0.00 | 0.00 | 0.00 | 46 | 1011.9 |
| 20260906171848 | 96 | 154 | 1.7 | 6.1 | 0.00 | 0.00 | 0.00 | 47 | 1012.0 |
| 20260906165708 | 95 | 214 | 1.7 | 7.0 | 0.00 | 0.00 | 0.00 | 47 | 1012.2 |
| 20260906164701 | 96 | 106 | 1.7 | 7.0 | 0.00 | 0.00 | 0.00 | 47 | 1012.3 |
| 20260906163710 | 95 | 74 | 1.7 | 6.1 | 0.00 | 0.00 | 0.00 | 47 | 1012.5 |
| 20260906162653 | 95 | 178 | 0.9 | 5.2 | 0.00 | 0.00 | 0.00 | 49 | 1012.5 |
| 20260906161651 | 94 | 186 | 0.9 | 5.2 | 0.00 | 0.00 | 0.00 | 49 | 1012.4 |
| 20260906160710 | 94 | 194 | 0.9 | 5.2 | 0.00 | 0.00 | 0.00 | 49 | 1012.3 |
| 20260906154539 | 93 | 63 | 0.9 | 5.2 | 0.00 | 0.00 | 0.00 | 52 | 1012.2 |
| 20260906153547 | 93 | 121 | 0.9 | 5.2 | 0.00 | 0.00 | 0.00 | 52 | 1012.2 |
| 20260906152605 | 92 | 124 | 0.9 | 5.2 | 0.00 | 0.00 | 0.00 | 54 | 1012.0 |
| 20260906145339 | 90 | 86 | 0.9 | 3.5 | 0.00 | 0.00 | 0.00 | 61 | 1011.8 |
| 20260906144351 | 89 | 40 | 0.9 | 2.6 | 0.00 | 0.00 | 0.00 | 62 | 1011.8 |
| 20260906142248 | 87 | 143 | 0.0 | 1.7 | 0.00 | 0.00 | 0.00 | 68 | 1011.8 |
| 20260906141252 | 85 | 143 | 0.0 | 1.7 | 0.00 | 0.00 | 0.00 | 70 | 1011.9 |
| 20260906140215 | 84 | 143 | 0.0 | 0.0 | 0.00 | 0.00 | 0.00 | 73 | 1012.1 |
| 20260906135143 | 82 | 143 | 0.0 | 0.0 | 0.00 | 0.00 | 0.00 | 77 | 1012.0 |
| 20260906134127 | 80 | 143 | 0.0 | 0.0 | 0.00 | 0.00 | 0.00 | 82 | 1012.0 |
| 20260906133135 | 79 | 143 | 0.0 | 0.0 | 0.00 | 0.00 | 0.00 | 84 | 1012.1 |
| 20260906132137 | 77 | 143 | 0.0 | 0.9 | 0.00 | 0.00 | 0.00 | 86 | 1012.1 |
| 20260906131110 | 76 | 143 | 0.0 | 0.0 | 0.00 | 0.00 | 0.00 | 86 | 1012.0 |
| 20260906130057 | 76 | 143 | 0.0 | 0.0 | 0.00 | 0.00 | 0.00 | 85 | 1011.8 |
| 20260906125118 | 75 | 143 | 0.0 | 0.0 | 0.00 | 0.00 | 0.00 | 85 | 1011.7 |
| 20260906124054 | 75 | 143 | 0.0 | 0.0 | 0.00 | 0.00 | 0.00 | 85 | 1011.7 |
| 20260906123041 | 75 | 144 | 0.0 | 0.0 | 0.00 | 0.00 | 0.00 | 85 | 1011.7 |
| 20260906122025 | 75 | 128 | 0.0 | 0.0 | 0.00 | 0.00 | 0.00 | 84 | 1011.6 |
| 20260906121045 | 75 | 128 | 0.0 | 0.0 | 0.00 | 0.00 | 0.00 | 84 | 1011.5 |
| 20260906120022 | 75 | 128 | 0.0 | 0.0 | 0.00 | 0.00 | 0.00 | 84 | 1011.4 |
| 20260906115019 | 76 | 128 | 0.0 | 0.0 | 0.00 | 0.00 | 0.00 | 83 | 1011.4 |
| 20260906114022 | 76 | 128 | 0.0 | 0.0 | 0.00 | 0.00 | 0.00 | 83 | 1011.3 |
| 20260906113025 | 76 | 128 | 0.0 | 0.0 | 0.00 | 0.00 | 0.00 | 83 | 1011.2 |
| 20260906112025 | 76 | 128 | 0.0 | 0.0 | 0.00 | 0.00 | 0.00 | 82 | 1011.1 |
| 20260906111000 | 76 | 128 | 0.0 | 0.0 | 0.00 | 0.00 | 0.00 | 82 | 1011.0 |
| 20260906105954 | 76 | 128 | 0.0 | 0.0 | 0.00 | 0.00 | 0.00 | 82 | 1010.9 |
| 20260906104948 | 76 | 128 | 0.0 | 0.0 | 0.00 | 0.00 | 0.00 | 81 | 1010.7 |
| 20260906103939 | 77 | 128 | 0.0 | 0.0 | 0.00 | 0.00 | 0.00 | 81 | 1010.7 |
| 20260906102928 | 77 | 128 | 0.0 | 0.0 | 0.00 | 0.00 | 0.00 | 81 | 1010.7 |
| 20260906101907 | 77 | 128 | 0.0 | 0.0 | 0.00 | 0.00 | 0.00 | 80 | 1010.7 |
| 20260906100918 | 77 | 128 | 0.0 | 0.0 | 0.00 | 0.00 | 0.00 | 80 | 1010.6 |
| 20260906095908 | 78 | 128 | 0.0 | 0.0 | 0.00 | 0.00 | 0.00 | 79 | 1010.6 |
| 20260906094854 | 78 | 128 | 0.0 | 0.0 | 0.00 | 0.00 | 0.00 | 78 | 1010.5 |
| 20260906092730 | 79 | 128 | 0.0 | 0.0 | 0.00 | 0.00 | 0.00 | 78 | 1010.4 |
| 20260906091655 | 79 | 128 | 0.0 | 0.0 | 0.00 | 0.00 | 0.00 | 77 | 1010.2 |
| 20260906090627 | 79 | 128 | 0.0 | 0.0 | 0.00 | 0.00 | 0.00 | 76 | 1010.1 |
| 20260906085642 | 80 | 128 | 0.0 | 0.0 | 0.00 | 0.00 | 0.00 | 75 | 1010.1 |
| 20260906084639 | 80 | 128 | 0.0 | 0.0 | 0.00 | 0.00 | 0.00 | 75 | 1010.1 |
| 20260906082527 | 80 | 128 | 0.0 | 0.0 | 0.00 | 0.00 | 0.00 | 75 | 1010.2 |
| 20260906081458 | 79 | 128 | 0.0 | 0.0 | 0.00 | 0.00 | 0.00 | 77 | 1009.9 |
| 20260906080423 | 79 | 128 | 0.0 | 0.0 | 0.00 | 0.00 | 0.00 | 77 | 1009.8 |
| 20260906075407 | 79 | 128 | 0.0 | 0.0 | 0.00 | 0.00 | 0.00 | 76 | 1010.0 |
| 20260906074426 | 79 | 128 | 0.0 | 0.0 | 0.00 | 0.00 | 0.00 | 76 | 1010.1 |
| 20260906073423 | 79 | 128 | 0.0 | 0.0 | 0.00 | 0.00 | 0.00 | 76 | 1010.2 |
| 20260906072422 | 79 | 128 | 0.0 | 0.0 | 0.00 | 0.00 | 0.00 | 75 | 1010.3 |
| 20260906071349 | 79 | 128 | 0.0 | 0.0 | 0.00 | 0.00 | 0.00 | 74 | 1010.4 |
| 20260906070411 | 80 | 128 | 0.0 | 0.0 | 0.00 | 0.00 | 0.00 | 75 | 1010.4 |
| 20260906065420 | 80 | 128 | 0.0 | 0.0 | 0.00 | 0.00 | 0.00 | 74 | 1010.5 |
| 20260906062124 | 80 | 128 | 0.0 | 0.0 | 0.00 | 0.00 | 0.00 | 71 | 1010.4 |
| 20260906061126 | 80 | 128 | 0.0 | 0.0 | 0.00 | 0.00 | 0.00 | 70 | 1010.3 |
| 20260906055031 | 81 | 128 | 0.0 | 0.0 | 0.00 | 0.00 | 0.00 | 69 | 1010.4 |
| 20260906053955 | 82 | 128 | 0.0 | 0.0 | 0.00 | 0.00 | 0.00 | 69 | 1010.4 |
| 20260906052925 | 82 | 128 | 0.0 | 0.0 | 0.00 | 0.00 | 0.00 | 67 | 1010.5 |
| 20260906051929 | 83 | 128 | 0.0 | 0.0 | 0.00 | 0.00 | 0.00 | 66 | 1010.7 |
| 20260906044655 | 85 | 128 | 0.0 | 0.0 | 0.00 | 0.00 | 0.00 | 61 | 1010.4 |
| 20260906043625 | 86 | 128 | 0.0 | 0.0 | 0.00 | 0.00 | 0.00 | 60 | 1010.3 |
| 20260906042558 | 86 | 128 | 0.0 | 0.0 | 0.00 | 0.00 | 0.00 | 59 | 1010.4 |
| 20260906041603 | 87 | 128 | 0.0 | 0.0 | 0.00 | 0.00 | 0.00 | 58 | 1010.2 |
| 20260906040547 | 87 | 128 | 0.0 | 0.0 | 0.00 | 0.00 | 0.00 | 57 | 1010.2 |
| 20260906035534 | 87 | 128 | 0.0 | 0.9 | 0.00 | 0.00 | 0.00 | 57 | 1010.2 |
| 20260906034550 | 88 | 128 | 0.0 | 0.0 | 0.00 | 0.00 | 0.00 | 56 | 1010.3 |
| 20260906033559 | 88 | 128 | 0.0 | 1.7 | 0.00 | 0.00 | 0.00 | 55 | 1010.3 |
| 20260906032554 | 88 | 128 | 0.0 | 2.6 | 0.00 | 0.00 | 0.00 | 55 | 1010.4 |
| 20260906031548 | 89 | 178 | 0.9 | 4.3 | 0.00 | 0.00 | 0.00 | 54 | 1010.4 |
| 20260906030545 | 89 | 209 | 0.0 | 4.3 | 0.00 | 0.00 | 0.00 | 54 | 1010.3 |
| 20260906025535 | 89 | 123 | 0.0 | 4.3 | 0.00 | 0.00 | 0.00 | 54 | 1010.2 |
| 20260906024531 | 89 | 149 | 0.9 | 4.3 | 0.00 | 0.00 | 0.00 | 54 | 1010.2 |
| 20260906023552 | 90 | 132 | 0.9 | 3.5 | 0.00 | 0.00 | 0.00 | 53 | 1010.0 |
| 20260906022526 | 90 | 167 | 0.9 | 5.2 | 0.00 | 0.00 | 0.00 | 52 | 1009.7 |
| 20260906021526 | 91 | 157 | 0.9 | 7.0 | 0.00 | 0.00 | 0.00 | 51 | 1009.6 |
| 20260906020535 | 92 | 155 | 1.7 | 7.0 | 0.00 | 0.00 | 0.00 | 49 | 1009.5 |
| 20260906015521 | 91 | 123 | 0.9 | 6.1 | 0.00 | 0.00 | 0.00 | 49 | 1009.3 |
| 20260906013337 | 90 | 130 | 0.0 | 0.0 | 0.00 | 0.00 | 0.00 | 48 | 1008.8 |
| 20260906010211 | 93 | 130 | 0.0 | 0.0 | 0.00 | 0.00 | 0.00 | 45 | 1008.5 |
| 20260906005134 | 95 | 130 | 0.0 | 0.0 | 0.00 | 0.00 | 0.00 | 42 | 1008.4 |
| 20260906004138 | 96 | 130 | 0.0 | 0.0 | 0.00 | 0.00 | 0.00 | 42 | 1008.5 |
| 20260906003146 | 97 | 130 | 0.0 | 2.6 | 0.00 | 0.00 | 0.00 | 41 | 1008.4 |
| 20260906000941 | 98 | 93 | 0.0 | 0.9 | 0.00 | 0.00 | 0.00 | 37 | 1008.5 |
| 20260905235949 | 98 | 185 | 0.9 | 2.6 | 0.00 | 0.00 | 0.00 | 36 | 1008.4 |
| 20260905233850 | 99 | 156 | 0.9 | 4.3 | 0.00 | 0.00 | 0.00 | 35 | 1008.2 |
| 20260905232848 | 100 | 160 | 0.0 | 4.3 | 0.00 | 0.00 | 0.00 | 34 | 1008.2 |